Location: Amos
(48.5670°N, 78.1170°W)
Time: 14:12:45
(UTC-05:00)

Envisat - Visible Passes

Search period start: 12 November 2019 00:00
Search period end: 22 November 2019 00:00
Orbit: 764 x 766 km, 98.1° (Epoch: 12 November)

Date Brightness Start Highest point End Pass type
(mag) Time Alt. Az. Time Alt. Az. Time Alt. Az.
12 Nov 3.3 18:18:49 10° S 18:23:52 70° WSW 18:28:58 10° NNW visible
13 Nov 5.1 06:24:05 10° NNE 06:28:36 31° E 06:33:04 10° SSE visible
13 Nov 3.0 17:42:09 10° SSE 17:47:08 59° ENE 17:52:08 10° N visible
13 Nov 5.5 19:22:45 10° SW 19:26:32 21° W 19:30:22 10° NW visible
14 Nov 6.1 05:48:26 10° NE 05:51:26 15° E 05:54:24 10° SE visible
14 Nov 3.7 17:06:11 10° SE 17:10:34 30° ENE 17:14:59 10° N visible
14 Nov 4.3 18:44:40 10° SSW 18:49:28 42° W 18:54:18 10° NNW visible
15 Nov 3.0 18:07:30 10° SSE 18:12:35 85° WSW 18:17:42 10° NNW visible
15 Nov 6.1 19:50:17 10° WSW 19:52:23 12° W 19:54:30 10° WNW visible
16 Nov 5.5 06:13:02 10° NE 06:17:14 25° E 06:21:24 10° SSE visible
16 Nov 3.2 17:31:02 10° SE 17:35:54 48° ENE 17:40:47 10° N visible
16 Nov 5.2 19:10:58 10° SSW 19:15:10 26° W 19:19:23 10° NW visible
17 Nov 6.2 05:37:55 10° ENE 05:40:00 12° E 05:42:04 10° ESE visible
17 Nov 3.8 18:33:11 10° S 18:38:08 52° W 18:43:07 10° NNW visible
18 Nov 4.5 06:38:05 10° NNE 06:42:56 41° E 06:47:42 10° SSE visible
18 Nov 2.9 17:56:15 10° SSE 18:01:19 79° ENE 18:06:25 10° NNW visible
18 Nov 5.8 19:37:58 10° SW 19:40:58 16° W 19:43:59 10° NW visible
19 Nov 5.8 06:02:02 10° NE 06:05:51 21° E 06:09:37 10° SE visible
19 Nov 3.4 17:19:59 10° SE 17:24:41 40° ENE 17:29:25 10° N visible
19 Nov 4.8 18:59:18 10° SSW 19:03:47 31° W 19:08:19 10° NNW visible
20 Nov 3.4 18:21:48 10° S 18:26:50 64° WSW 18:31:54 10° NNW visible
21 Nov 4.9 06:26:58 10° NNE 06:31:35 34° E 06:36:10 10° SSE visible
21 Nov 2.9 17:45:03 10° SSE 17:50:04 64° ENE 17:55:07 10° N visible
21 Nov 5.6 19:25:57 10° SW 19:29:33 19° W 19:33:10 10° NW visible
